THORAD AGENA D DEB, 19351

Orbit data source: Space-Track

THORAD AGENA D DEB, 19351 is space debris in SSO originally from a launch on Wed, 08 Apr 1970 UTC launched from the Air Force Western Test Range (AFWTR). Debris objects in space refer to the collection of defunct objects orbiting the Earth. Examples of debris include non-operational satellites, rocket bodies, and fragments generated from explosions, collisions, or faulty payload assembly.

Loading next visibility...
Identifier
19351, 1970-025PW
Orbit
SSO
Country
Flag of USUS
Related business
Manufacturer
Unknown
Mission
Spacecraft
Bus & Motor
Unknown
Mass
Unknown
Launch date (UTC)
1970-04-08 (56 years ago)
Launch vehicle
Unknown
Launch site
Air Force Western Test Range (AFWTR)
Object type
Payload
Rocket body
Debris
Shape & HBR
Unknown shape, 0.1 m
Radar Cross Section
Small (<0.1 m²)

Expand to show TLE details & history
Last TLE update: 2 days ago

TLE from 2 days ago
0 THORAD AGENA D DEB
1 19351U 70025PW  26061.05415406  .00000485  00000-0  57915-3 0  9990
2 19351 100.1304 264.4722 0028850 107.0120  46.2602 13.72743152916013
Epoch: 2026-03-02T01:17Z
TLE epoch observation values (Epoch: 2026-03-02T01:17:58.910Z)
Latitude
26.07876°
Longitude
-89.88558°
Altitude
978.137 km
Speed
7.372 km/s
True Right ascension
05h 57m 51s
True Declination
25° 56' 50"
Sunlit
Object was in daylight at epoch
Visualization orbit readout
Latitude
Unknown
Longitude
Unknown
Altitude
Unknown
Speed
Unknown
Apparent Right ascension
Unknown
Apparent Declination
Unknown
Sunlit
N/A
Visualization observer readout
Local Sidereal Time
13:45:52
Azimuth
Unknown
Elevation
Unknown
Doppler factor
Unknown
Orbital elements
Apogee altitude
1,008.282 km
Perigee altitude
965.785 km
Semi-major axis
7,365.17 km
Eccentricity
0.00289
Inclination
100.1304°
RAAN
264.4722°
Arg. of periapsis
107.012°
True anomaly
46.49965°
Mean anomaly
46.2602°
Eccentric anomaly
46.37986°
Mean motion
3.43375 °/min
Orbital period
104.84 mins
BSTAR
0.00057915
Loading maneuver chart data...
Computing Atmospheric mass density...

Documentation

Showing up to 5 results
|